Regional Weather Roundup
Issued by NWS

Home | Current Version | Previous Version | Graphics & Text | Print | Product List | Glossary On
Versions: 1 2 3 4 5 6 7 8 9 10 11 12 13 14 15 16 17 18 19 20 21 22 23 24 25 26 27 28 29 30 31 32 33 34 35 36 37 38 39 40 41 42 43 44 45 46 47 48 49 50
389
ASUS43 KFSD 270910
RWRSD

WEATHER ROUNDUP FOR SOUTH DAKOTA
NATIONAL WEATHER SERVICE SIOUX FALLS SD
400 AM CDT TUE SEP 27 2016

NOTE: "FAIR" INDICATES FEW OR NO CLOUDS BELOW 12,000 FEET WITH NO
SIGNIFICANT WEATHER AND/OR OBSTRUCTIONS TO VISIBILITY.


SDZ001>005-009-010-012>017-271000-
NORTHWEST AND NORTH CENTRAL SOUTH DAKOTA

CITY           SKY/WX    TMP DP  RH WIND       PRES   REMARKS
BUFFALO          N/A     49  42  77 W5        30.04F
FAITH            N/A     50  41  71 W7        30.09F
MOBRIDGE       CLEAR     41  36  82 CALM      30.03F
$$

SDZ012>016-024>037-041>051-057-063-072>074-271000-
SOUTHWEST AND SOUTH CENTRAL SOUTH DAKOTA

CITY           SKY/WX    TMP DP  RH WIND       PRES   REMARKS
RAPID CTY ARPT CLEAR     43  38  82 CALM      30.13F
PIERRE         CLEAR     46  37  71 SW3       30.05F
CUSTER         CLEAR     49  39  68 W7        30.22F
ELLSWORTH AFB  CLEAR     50  41  73 W5        30.12F
PHILIP         CLEAR     44  39  82 W9        30.11F
PINE RIDGE     CLOUDY    35  33  92 CALM      30.16F
WINNER         FAIR      46  39  76 SW7       30.09F
$$

SDZ004>011-016>023-039-040-271000-
NORTHEAST SOUTH DAKOTA

CITY           SKY/WX    TMP DP  RH WIND       PRES   REMARKS
ABERDEEN       CLEAR     48  37  65 W5        30.00F
WATERTOWN      CLEAR     49  37  63 NW9       29.99S
BROOKINGS      CLEAR     45  36  70 CALM      29.99F
SISSETON         N/A     49  34  56 NW8       29.94F
$$

SDZ017-020-022-023-036>040-048>070-271000-
SOUTHEAST SOUTH DAKOTA

CITY           SKY/WX    TMP DP  RH WIND       PRES   REMARKS
SIOUX FALLS    CLEAR     46  37  71 W6        30.02S
HURON          CLEAR     43  35  73 NW6       30.03S
CHAMBERLAIN    CLEAR     48  42  79 W3        30.07F
MITCHELL       CLEAR     49  37  63 W10       30.04F
YANKTON        CLEAR     52  37  58 W6        30.03F
$$

ABBREVIATIONS USED IN REMARKS
   TC - TEMPERATURE IN CELSIUS
  WCI - WIND CHILL INDEX
   HX - HEAT INDEX
  VSB - VISIBILITY





USA.gov is the U.S. government's official web portal to all federal, state and local government web resources and services.